SOYUZ-MS 07 (43063 NORAD) Tracking and Keplerian Element Data

This shows tracking and keplerian element data for the satellite.

Feedback or suggestion? Click here.




ElementValue
Catalog43063
NameSOYUZ-MS 07
Epoch Orbit11628
Epoch Day153.80048451
Epoch Year2018
RAAN90.4287
Inclination51.6419
Eccentricity0.0003788
Argument of Perigee145.4594
Mean Anonmoly236.6455
Mean Motion15.54124171
Decay Rate1.618E-05
L11 43063U 17081A 18153.80048451 .00001618 00000-0 31691-4 0 9991
L22 43063 51.6419 90.4287 0003788 145.4594 236.6455 15.54124171116282

Live tracking and technical data element details for SOYUZ-MS 07 (NORAD 43063). SOYUZ-MS 07 can be tracked NOW for your location showing map with azimuth and elevation plus other details from your city location.

Track the satellite on the map from your city or location and see movement details for azimuth, elevation, latitude, longitude, range, height, and movement on the map or in text.







IsCatalogInMostPopularTable: catalog: 43063, numindb: 122
Update: records affected: 1



GetName: 43063 SOYUZ-MS 07

Hit Count: updated at: Tue, 13 Nov 2018 22:05:01 GMT